Torna al catalogo

DELTA 1 DEB

AttivoSSO
NORAD 12534·DEBRIS·🇺🇸 United States

Lanciato Jul 29, 1976 da Vandenberg Space Force Base

Loading…

Prossimi Passaggi (prossime 24 ore)

TLE

AggiornatoSource: Space-Track

Epoca: Sep 14, 2026, 11:21 UTC

1 12534U 76077DP  26257.47355564 -.00000152  00000-0 -83311-3 0  9992
2 12534 102.0191 323.5940 0059184 270.6896 221.8381 12.37030301180297

Traccia DELTA 1 DEB in tempo reale con AllMySat

Download on the App Store